Regional Weather Roundup
Issued by NWS

Home | Current Version | Previous Version | Graphics & Text | Print | Product List | Glossary On
Versions: 1 2 3 4 5 6 7 8 9 10 11 12 13 14 15 16 17 18 19 20 21 22 23 24 25 26 27 28 29 30 31 32 33 34 35 36 37 38 39 40 41 42 43 44 45 46 47 48 49 50
664
ASUS43 KIND 220459
RWRIN

WEATHER ROUNDUP FOR INDIANA
NATIONAL WEATHER SERVICE INDIANAPOLIS IN
100 AM EDT FRI MAY 22 2015

NOTE: "FAIR" INDICATES FEW OR NO CLOUDS BELOW 12,000 FEET WITH NO
SIGNIFICANT WEATHER AND/OR OBSTRUCTIONS TO VISIBILITY.

* - STATION DOES NOT REPORT WEATHER SUCH AS PRECIPITATION OR FOG.

+ - STATION NOT QUALITY CONTROLLED BY THE NATIONAL WEATHER SERVICE.
    USE DATA WITH CAUTION...ESPECIALLY DEWPOINT AND RELATIVE
    HUMIDITY OBSERVATIONS.

INZ001>003-010>013-019-020-220600-
NORTHWEST INDIANA

CITY           SKY/WX    TMP DP  RH WIND       PRES   REMARKS
RENSSELAER +   CLEAR     54  41  62 SW6       30.08S

$$

LMZ046-743>745-220600-
SOUTHERN LAKE MICHIGAN

STATION/POSITION TIME  TEMP    WIND        PRES    WAVE
                       AIR SEA DIR/SP/G            HT
                 (UTC) (F)     (DEG/KT/KT) (MB)    (FT)
BURNS HARBOR     0400   59     200/ 10/ 14 1017.6S
MICHIGAN CITY    0400   59     180/ 12/ 13   N/A
5NW MICH CITY    0400   55 51  220/ 10/ 10   N/A     1

$$

INZ004-005-014>016-021>024-220600-
NORTH CENTRAL INDIANA

CITY           SKY/WX    TMP DP  RH WIND       PRES   REMARKS
GOSHEN         CLEAR     50  38  63 SW9       30.04S
SOUTH BEND     PTCLDY    54  35  48 SW9       30.04F

$$

INZ006>009-017-018-025>027-220600-
NORTHEAST INDIANA

CITY           SKY/WX    TMP DP  RH WIND       PRES   REMARKS
ANGOLA *+      CLEAR     48  36  61 SW3       30.03S
FORT WAYNE     CLEAR     49  41  74 SW8       30.07S

$$

INZ028-029-035-036-043>045-051>053-220600-
WEST CENTRAL INDIANA

CITY           SKY/WX    TMP DP  RH WIND       PRES   REMARKS
CRAWFORDSVL +  CLEAR     49  35  58 SW9       30.12S
GREENCASTLE +  CLEAR     46  37  71 CALM      30.14S
LAFAYETTE      CLEAR     49  40  71 SW3       30.10S
TERRE HAUTE    CLEAR     50  43  77 SW8       30.15S

$$

INZ030>032-037>040-046>048-054>057-064-065-220600-
CENTRAL INDIANA

CITY           SKY/WX    TMP DP  RH WIND       PRES   REMARKS
GREENWOOD *+   CLEAR     52  39  62 W6        30.13S
INDIANAPOLIS   CLEAR     50  41  71 SW10      30.11S
-EAGLE CREEK   CLEAR     51  41  68 SW5       30.11S
KOKOMO *+      CLEAR     52  39  62 W9        30.09S
MT COMFORT *+  CLEAR     50  34  53 SW8       30.12S
SHELBYVILLE    CLEAR     50  42  74 SW9       30.12S

$$

INZ033-034-041-042-049-050-058-059-220600-
EAST CENTRAL INDIANA

CITY           SKY/WX    TMP DP  RH WIND       PRES   REMARKS
MUNCIE         CLEAR     52  38  58 SW8       30.09S

$$

INZ060-061-067>069-081>083-085>088-220600-
SOUTHWEST INDIANA

CITY           SKY/WX    TMP DP  RH WIND       PRES   REMARKS
EVANSVILLE     CLEAR     48  44  86 W3        30.19F
HUNTINGBURG *+ CLEAR     46  41  81 S3        30.19S

$$

INZ062-063-066-070>080-084-089>092-220600-
SOUTH CENTRAL AND SOUTHEAST INDIANA

CITY           SKY/WX    TMP DP  RH WIND       PRES   REMARKS
BLOOMINGTON    CLEAR     51  43  74 W7        30.15S
MADISON *+     CLEAR     45  41  87 CALM      30.17F
SEYMOUR +      CLEAR     48  43  81 W3        30.15S

$$




USA.gov is the U.S. government's official web portal to all federal, state and local government web resources and services.